BCS304 EKVG-EBBR

Flight info

Callsign BCS304
Flight time 2h 2m
Altitude 35000
Route MY DCT OSBON DCT MOCHA DCT FORTY DCT CUTEL DCT ROKAN DCT GODOS DCT ALFEN DCT ORCAV Z310 WOODY WODY9A
Aircraft B752/M-SDE1FGHILORVWXYZ/LB1

Departure

Time 2026-05-06 18:09
Airport Vágar Airport (EKVG)

Arrival

Time 2026-05-06 20:12
Airport Brussels Airport (EBBR)
Time Latitude Longitude Altitude Speed Heading
2026-05-06 17:33 62.06665 -7.27877 293 ft 0 kts 29°
2026-05-06 17:38 62.06664 -7.27877 296 ft 0 kts 29°
2026-05-06 17:40 62.06665 -7.27877 296 ft 0 kts 29°
2026-05-06 17:44 62.06664 -7.27877 295 ft 0 kts 30°
2026-05-06 18:00 62.06665 -7.27877 295 ft 0 kts 30°
2026-05-06 18:01 62.06667 -7.27874 295 ft 1 kts 30°
2026-05-06 18:02 62.06672 -7.27869 295 ft 0 kts 30°
2026-05-06 18:03 62.06671 -7.27869 295 ft 0 kts 30°
2026-05-06 18:03 62.06661 -7.27882 295 ft 0 kts 30°
2026-05-06 18:04 62.06662 -7.27881 295 ft 0 kts 21°
2026-05-06 18:04 62.06683 -7.27929 295 ft 11 kts 262°
2026-05-06 18:04 62.06637 -7.28076 295 ft 9 kts 200°
2026-05-06 18:04 62.06580 -7.28089 295 ft 7 kts 186°
2026-05-06 18:05 62.06576 -7.28090 295 ft 0 kts 188°
2026-05-06 18:06 62.06573 -7.28092 295 ft 3 kts 188°
2026-05-06 18:06 62.06524 -7.28121 296 ft 10 kts 202°
2026-05-06 18:06 62.06490 -7.28233 297 ft 12 kts 281°
2026-05-06 18:07 62.06541 -7.28457 293 ft 21 kts 298°
2026-05-06 18:07 62.06622 -7.28782 286 ft 26 kts 297°
2026-05-06 18:07 62.06687 -7.29050 283 ft 12 kts 297°
2026-05-06 18:07 62.06700 -7.29141 284 ft 6 kts 274°
2026-05-06 18:08 62.06713 -7.29197 284 ft 2 kts 346°
2026-05-06 18:08 62.06721 -7.29182 284 ft 1 kts 74°
2026-05-06 18:08 62.06715 -7.29148 284 ft 0 kts 119°
2026-05-06 18:09 62.06658 -7.28925 284 ft 48 kts 118°
2026-05-06 18:09 62.06370 -7.27765 302 ft 127 kts 118°
2026-05-06 18:09 62.05865 -7.25723 519 ft 176 kts 114°
2026-05-06 18:09 62.05397 -7.23367 1651 ft 169 kts 117°
2026-05-06 18:10 62.04658 -7.21551 2276 ft 177 kts 149°
2026-05-06 18:10 62.03471 -7.20906 2940 ft 180 kts 181°
2026-05-06 18:10 62.02219 -7.21628 3467 ft 193 kts 204°
2026-05-06 18:10 62.01099 -7.23428 3842 ft 216 kts 227°
2026-05-06 18:11 62.00109 -7.26014 4331 ft 236 kts 235°
2026-05-06 18:11 61.99284 -7.29142 4906 ft 252 kts 248°
2026-05-06 18:11 61.98756 -7.32778 5528 ft 266 kts 261°
2026-05-06 18:11 61.98651 -7.36731 6444 ft 267 kts 276°
2026-05-06 18:12 61.99005 -7.40584 7261 ft 270 kts 291°
2026-05-06 18:12 61.99818 -7.44156 8040 ft 272 kts 306°
2026-05-06 18:12 62.01034 -7.47179 8778 ft 274 kts 321°
2026-05-06 18:12 62.02692 -7.49584 9462 ft 279 kts 335°
2026-05-06 18:13 62.04462 -7.51411 9968 ft 291 kts 334°
2026-05-06 18:13 62.06257 -7.53449 10639 ft 299 kts 333°
2026-05-06 18:13 62.08247 -7.55039 10903 ft 317 kts 352°
2026-05-06 18:13 62.10484 -7.55179 11202 ft 333 kts 10°
2026-05-06 18:14 62.12756 -7.53758 11456 ft 348 kts 28°
2026-05-06 18:14 62.14763 -7.50821 12036 ft 353 kts 45°
2026-05-06 18:14 62.16286 -7.46720 12632 ft 357 kts 62°
2026-05-06 18:14 62.17199 -7.41796 13197 ft 362 kts 78°
2026-05-06 18:15 62.17421 -7.36447 13772 ft 367 kts 94°
2026-05-06 18:15 62.16916 -7.31091 14425 ft 371 kts 110°
2026-05-06 18:15 62.15675 -7.26060 15060 ft 376 kts 127°
2026-05-06 18:15 62.13835 -7.22008 15686 ft 380 kts 143°
2026-05-06 18:16 62.11568 -7.19138 16287 ft 384 kts 154°
2026-05-06 18:16 62.09235 -7.16293 16830 ft 390 kts 145°
2026-05-06 18:16 62.07064 -7.12782 17421 ft 395 kts 141°
2026-05-06 18:16 62.04958 -7.08970 17991 ft 400 kts 139°
2026-05-06 18:17 62.02898 -7.05009 18559 ft 405 kts 137°
2026-05-06 18:17 62.00817 -7.00859 19183 ft 409 kts 137°
2026-05-06 18:17 61.98757 -6.96672 19810 ft 412 kts 137°
2026-05-06 18:17 61.96715 -6.92480 20465 ft 416 kts 137°
2026-05-06 18:18 61.94601 -6.88119 21032 ft 419 kts 137°
2026-05-06 18:18 61.92505 -6.83789 21455 ft 424 kts 137°
2026-05-06 18:18 61.90395 -6.79426 21894 ft 428 kts 137°
2026-05-06 18:18 61.88239 -6.74975 22312 ft 433 kts 138°
2026-05-06 18:19 61.86075 -6.70511 22740 ft 437 kts 138°
2026-05-06 18:19 61.83886 -6.66004 23171 ft 441 kts 138°
2026-05-06 18:19 61.81699 -6.61510 23586 ft 445 kts 139°
2026-05-06 18:19 61.79457 -6.56911 23999 ft 449 kts 139°
2026-05-06 18:20 61.77247 -6.52390 24390 ft 452 kts 139°
2026-05-06 18:20 61.74979 -6.47757 24781 ft 456 kts 139°
2026-05-06 18:20 61.72694 -6.43102 25159 ft 460 kts 139°
2026-05-06 18:20 61.70389 -6.38415 25529 ft 463 kts 139°
2026-05-06 18:21 61.68066 -6.33702 25896 ft 466 kts 140°
2026-05-06 18:21 61.65722 -6.28955 26272 ft 469 kts 141°
2026-05-06 18:21 61.63360 -6.24185 26608 ft 473 kts 141°
2026-05-06 18:21 61.60959 -6.19345 26956 ft 476 kts 141°
2026-05-06 18:22 61.58577 -6.14554 27289 ft 479 kts 141°
2026-05-06 18:22 61.56123 -6.09633 27634 ft 482 kts 141°
2026-05-06 18:22 61.53682 -6.04746 27962 ft 485 kts 141°
2026-05-06 18:22 61.51251 -5.99891 28283 ft 488 kts 141°
2026-05-06 18:23 61.48758 -5.94923 28604 ft 491 kts 141°
2026-05-06 18:23 61.46296 -5.90027 28919 ft 494 kts 141°
2026-05-06 18:23 61.43808 -5.85094 29225 ft 497 kts 141°
2026-05-06 18:23 61.41294 -5.80117 29527 ft 499 kts 141°
2026-05-06 18:24 61.38777 -5.75149 29818 ft 502 kts 141°
2026-05-06 18:24 61.36255 -5.70180 30096 ft 505 kts 141°
2026-05-06 18:24 61.33705 -5.65171 30373 ft 507 kts 141°
2026-05-06 18:24 61.31114 -5.60090 30646 ft 510 kts 141°
2026-05-06 18:25 61.28559 -5.55092 30906 ft 513 kts 141°
2026-05-06 18:25 61.25960 -5.50021 31111 ft 517 kts 141°
2026-05-06 18:25 61.23340 -5.44921 31426 ft 518 kts 141°
2026-05-06 18:25 61.20734 -5.39859 31769 ft 518 kts 141°
2026-05-06 18:26 61.18121 -5.34794 32123 ft 518 kts 142°
2026-05-06 18:26 61.15480 -5.29689 32505 ft 517 kts 142°
2026-05-06 18:26 61.12885 -5.24685 32782 ft 517 kts 142°
2026-05-06 18:26 61.10260 -5.19636 33036 ft 517 kts 142°
2026-05-06 18:27 61.07637 -5.14602 33261 ft 517 kts 142°
2026-05-06 18:27 61.05004 -5.09563 33514 ft 516 kts 142°
2026-05-06 18:27 61.02404 -5.04598 33740 ft 516 kts 142°
2026-05-06 18:27 60.99831 -4.99346 33955 ft 519 kts 135°
2026-05-06 18:28 60.97602 -4.93567 34170 ft 521 kts 130°
2026-05-06 18:28 60.95442 -4.87697 34413 ft 519 kts 130°
2026-05-06 18:28 60.93261 -4.81822 34642 ft 518 kts 130°
2026-05-06 18:28 60.91071 -4.75939 34869 ft 516 kts 130°
2026-05-06 18:29 60.88918 -4.70167 35002 ft 512 kts 130°
2026-05-06 18:29 60.86763 -4.64405 35013 ft 511 kts 130°
2026-05-06 18:29 60.82441 -4.52898 35017 ft 510 kts 130°
2026-05-06 18:30 60.78149 -4.41523 35010 ft 507 kts 130°
2026-05-06 18:30 60.73845 -4.30173 35001 ft 506 kts 131°
2026-05-06 18:31 60.69540 -4.18875 35013 ft 506 kts 131°
2026-05-06 18:31 60.65217 -4.07587 35013 ft 507 kts 131°
2026-05-06 18:32 60.60900 -3.96370 35016 ft 507 kts 131°
2026-05-06 18:32 60.56563 -3.85153 35017 ft 507 kts 131°
2026-05-06 18:33 60.52198 -3.73919 35019 ft 507 kts 131°
2026-05-06 18:33 60.47806 -3.62672 35019 ft 507 kts 131°
2026-05-06 18:34 60.43430 -3.51520 35098 ft 508 kts 131°
2026-05-06 18:34 60.39053 -3.40418 35082 ft 504 kts 131°
2026-05-06 18:35 60.34688 -3.29398 35010 ft 503 kts 132°
2026-05-06 18:35 60.30310 -3.18401 35010 ft 506 kts 132°
2026-05-06 18:36 60.25920 -3.07425 35011 ft 506 kts 132°
2026-05-06 18:36 60.21502 -2.96430 35014 ft 505 kts 132°
2026-05-06 18:37 60.17097 -2.85519 35017 ft 506 kts 132°
2026-05-06 18:37 60.12661 -2.74585 35020 ft 505 kts 132°
2026-05-06 18:38 60.08223 -2.63696 35023 ft 505 kts 132°
2026-05-06 18:38 60.03789 -2.52870 35026 ft 505 kts 132°
2026-05-06 18:39 59.99348 -2.42074 35033 ft 506 kts 132°
2026-05-06 18:40 59.92644 -2.25872 35039 ft 506 kts 133°
2026-05-06 18:40 59.88165 -2.15113 35040 ft 506 kts 133°
2026-05-06 18:41 59.83657 -2.04333 35041 ft 506 kts 133°
2026-05-06 18:41 59.79094 -1.93474 35042 ft 507 kts 133°
2026-05-06 18:42 59.74585 -1.82792 35044 ft 508 kts 133°
2026-05-06 18:42 59.70069 -1.72142 35046 ft 507 kts 134°
2026-05-06 18:43 59.65568 -1.61576 35048 ft 507 kts 134°
2026-05-06 18:43 59.61021 -1.50953 35050 ft 507 kts 134°
2026-05-06 18:44 59.56414 -1.40492 35051 ft 503 kts 139°
2026-05-06 18:44 59.51003 -1.32133 35047 ft 497 kts 150°
2026-05-06 18:45 59.45354 -1.24531 35045 ft 495 kts 151°
2026-05-06 18:45 59.39615 -1.17035 35046 ft 496 kts 152°
2026-05-06 18:46 59.33882 -1.09653 35046 ft 496 kts 152°
2026-05-06 18:46 59.28096 -1.02257 35046 ft 496 kts 152°
2026-05-06 18:47 59.22348 -0.94950 35046 ft 496 kts 152°
2026-05-06 18:47 59.16605 -0.87684 35046 ft 496 kts 152°
2026-05-06 18:48 59.10801 -0.80369 35045 ft 496 kts 151°
2026-05-06 18:48 59.05048 -0.73151 35046 ft 497 kts 151°
2026-05-06 18:49 58.99253 -0.65908 35046 ft 497 kts 151°
2026-05-06 18:49 58.93461 -0.58698 35046 ft 496 kts 151°
2026-05-06 18:50 58.87663 -0.51510 35045 ft 496 kts 151°
2026-05-06 18:50 58.81862 -0.44348 35046 ft 497 kts 151°
2026-05-06 18:51 58.76055 -0.37206 35048 ft 497 kts 151°
2026-05-06 18:51 58.70266 -0.30116 35047 ft 496 kts 152°
2026-05-06 18:52 58.64473 -0.23049 35053 ft 496 kts 152°
2026-05-06 18:52 58.58656 -0.15982 35054 ft 496 kts 152°
2026-05-06 18:53 58.52835 -0.08937 35055 ft 496 kts 152°
2026-05-06 18:53 58.47046 -0.01957 35057 ft 496 kts 152°
2026-05-06 18:54 58.41208 0.05052 35058 ft 496 kts 152°
2026-05-06 18:54 58.35395 0.12003 35060 ft 496 kts 152°
2026-05-06 18:55 58.29586 0.18923 35058 ft 496 kts 152°
2026-05-06 18:55 58.23751 0.25850 35061 ft 493 kts 152°
2026-05-06 18:56 58.17977 0.32674 35067 ft 490 kts 153°
2026-05-06 18:56 58.12217 0.39453 35070 ft 492 kts 153°
2026-05-06 18:57 58.06408 0.46264 35073 ft 492 kts 153°
2026-05-06 18:57 58.00629 0.53017 35074 ft 492 kts 153°
2026-05-06 18:58 57.94810 0.59695 35074 ft 490 kts 156°
2026-05-06 18:58 57.88560 0.65458 35074 ft 487 kts 160°
2026-05-06 18:59 57.82496 0.70984 35060 ft 485 kts 160°
2026-05-06 18:59 57.76409 0.76509 35061 ft 486 kts 159°
2026-05-06 19:00 57.70372 0.81968 35068 ft 486 kts 159°
2026-05-06 19:00 57.64296 0.87442 35068 ft 486 kts 159°
2026-05-06 19:01 57.58254 0.92865 35072 ft 485 kts 159°
2026-05-06 19:01 57.52169 0.98308 35072 ft 485 kts 159°
2026-05-06 19:02 57.46137 1.03682 35072 ft 484 kts 159°
2026-05-06 19:02 57.40074 1.09063 35072 ft 484 kts 159°
2026-05-06 19:03 57.34034 1.14405 35072 ft 484 kts 159°
2026-05-06 19:03 57.27971 1.19748 35072 ft 483 kts 159°
2026-05-06 19:04 57.21905 1.25073 35071 ft 483 kts 159°
2026-05-06 19:04 57.15852 1.30368 35071 ft 483 kts 159°
2026-05-06 19:05 57.09795 1.35648 35071 ft 483 kts 159°
2026-05-06 19:05 57.03756 1.40892 35070 ft 482 kts 159°
2026-05-06 19:06 56.97750 1.46089 35069 ft 482 kts 159°
2026-05-06 19:06 56.91697 1.51307 35069 ft 481 kts 159°
2026-05-06 19:07 56.85677 1.56480 35069 ft 481 kts 159°
2026-05-06 19:07 56.79621 1.61663 35069 ft 481 kts 159°
2026-05-06 19:08 56.73607 1.66793 35063 ft 480 kts 160°
2026-05-06 19:08 56.67587 1.71910 35062 ft 479 kts 159°
2026-05-06 19:09 56.61557 1.77017 35062 ft 479 kts 159°
2026-05-06 19:09 56.55562 1.82076 35059 ft 478 kts 159°
2026-05-06 19:10 56.49559 1.87125 35057 ft 477 kts 159°
2026-05-06 19:10 56.43552 1.92159 35057 ft 477 kts 159°
2026-05-06 19:11 56.37528 1.97189 35056 ft 476 kts 159°
2026-05-06 19:11 56.31499 2.02207 35055 ft 476 kts 159°
2026-05-06 19:12 56.25458 2.07217 35055 ft 475 kts 159°
2026-05-06 19:12 56.19516 2.12128 35054 ft 474 kts 159°
2026-05-06 19:13 56.13534 2.17054 35057 ft 474 kts 159°
2026-05-06 19:13 56.07553 2.21964 35056 ft 474 kts 159°
2026-05-06 19:14 56.01611 2.26824 35056 ft 473 kts 159°
2026-05-06 19:14 55.95629 2.31699 35056 ft 473 kts 159°
2026-05-06 19:15 55.89658 2.36419 35050 ft 470 kts 164°
2026-05-06 19:15 55.83372 2.39297 35051 ft 467 kts 170°
2026-05-06 19:16 55.77059 2.41828 35050 ft 466 kts 171°
2026-05-06 19:16 55.70763 2.44286 35049 ft 466 kts 171°
2026-05-06 19:17 55.64448 2.46720 35052 ft 466 kts 171°
2026-05-06 19:17 55.58141 2.49136 35051 ft 466 kts 171°
2026-05-06 19:18 55.51835 2.51540 35051 ft 465 kts 171°
2026-05-06 19:18 55.45516 2.53940 35051 ft 465 kts 171°
2026-05-06 19:19 55.39223 2.56323 35051 ft 465 kts 171°
2026-05-06 19:19 55.32925 2.58699 35053 ft 465 kts 171°
2026-05-06 19:20 55.26606 2.61075 35054 ft 464 kts 171°
2026-05-06 19:20 55.20314 2.63433 35054 ft 464 kts 171°
2026-05-06 19:21 55.14039 2.65777 35050 ft 464 kts 172°
2026-05-06 19:21 55.07789 2.68105 35049 ft 463 kts 172°
2026-05-06 19:22 55.01489 2.70444 35045 ft 463 kts 172°
2026-05-06 19:22 54.95211 2.72766 35045 ft 463 kts 172°
2026-05-06 19:23 54.88946 2.75077 35044 ft 463 kts 172°
2026-05-06 19:23 54.82645 2.77394 35046 ft 463 kts 172°
2026-05-06 19:24 54.76386 2.79688 35051 ft 463 kts 172°
2026-05-06 19:24 54.70111 2.81980 35051 ft 463 kts 172°
2026-05-06 19:25 54.63845 2.84262 35055 ft 463 kts 172°
2026-05-06 19:25 54.57542 2.86551 35054 ft 462 kts 172°
2026-05-06 19:26 54.51275 2.88819 35055 ft 462 kts 172°
2026-05-06 19:26 54.44980 2.91089 35055 ft 462 kts 172°
2026-05-06 19:27 54.38712 2.93344 35048 ft 462 kts 172°
2026-05-06 19:27 54.32452 2.95588 35048 ft 463 kts 172°
2026-05-06 19:28 54.26126 2.97849 35048 ft 463 kts 172°
2026-05-06 19:28 54.19852 3.00084 35048 ft 462 kts 172°
2026-05-06 19:29 54.13561 3.02318 35172 ft 464 kts 172°
2026-05-06 19:29 54.07296 3.04537 35189 ft 460 kts 172°
2026-05-06 19:30 54.01057 3.06741 34899 ft 452 kts 172°
2026-05-06 19:30 53.94962 3.08886 34909 ft 449 kts 172°
2026-05-06 19:31 53.88880 3.11018 35037 ft 451 kts 172°
2026-05-06 19:31 53.79534 3.14282 35029 ft 464 kts 171°
2026-05-06 19:32 53.73171 3.16499 35024 ft 464 kts 171°
2026-05-06 19:32 53.66856 3.18746 35059 ft 464 kts 167°
2026-05-06 19:33 53.63771 3.20410 35165 ft 469 kts 163°
2026-05-06 19:33 53.60695 3.22208 35163 ft 468 kts 163°
2026-05-06 19:33 53.54577 3.25767 35094 ft 461 kts 163°
2026-05-06 19:34 53.51609 3.27496 34861 ft 455 kts 163°
2026-05-06 19:34 53.48619 3.29235 34865 ft 453 kts 163°
2026-05-06 19:34 53.42693 3.32677 34923 ft 451 kts 163°
2026-05-06 19:35 53.36712 3.36142 35009 ft 459 kts 163°
2026-05-06 19:35 53.30638 3.39651 35005 ft 467 kts 163°
2026-05-06 19:36 53.24631 3.43866 35017 ft 472 kts 151°
2026-05-06 19:36 53.19357 3.50312 35011 ft 474 kts 144°
2026-05-06 19:37 53.14136 3.57032 35013 ft 474 kts 144°
2026-05-06 19:37 53.08530 3.62377 35034 ft 458 kts 162°
2026-05-06 19:38 53.05542 3.63800 34932 ft 439 kts 172°
2026-05-06 19:38 53.02573 3.64377 34686 ft 421 kts 178°
2026-05-06 19:38 52.99698 3.64852 34446 ft 421 kts 173°
2026-05-06 19:38 52.96789 3.65732 34216 ft 433 kts 171°
2026-05-06 19:39 52.93800 3.66861 33969 ft 441 kts 169°
2026-05-06 19:39 52.90818 3.68101 33715 ft 442 kts 168°
2026-05-06 19:39 52.87855 3.69395 33460 ft 440 kts 167°
2026-05-06 19:39 52.84906 3.70724 33207 ft 439 kts 167°
2026-05-06 19:40 52.81957 3.72077 32950 ft 440 kts 167°
2026-05-06 19:40 52.78991 3.73453 32693 ft 441 kts 167°
2026-05-06 19:40 52.76073 3.74814 32440 ft 442 kts 167°
2026-05-06 19:40 52.73114 3.76199 32183 ft 442 kts 166°
2026-05-06 19:41 52.70164 3.77580 31925 ft 442 kts 166°
2026-05-06 19:41 52.67209 3.78965 31667 ft 443 kts 166°
2026-05-06 19:41 52.64274 3.80339 31412 ft 443 kts 166°
2026-05-06 19:41 52.61305 3.81727 31154 ft 444 kts 166°
2026-05-06 19:42 52.58328 3.83119 30897 ft 444 kts 166°
2026-05-06 19:42 52.55378 3.84496 30642 ft 444 kts 166°
2026-05-06 19:42 52.52377 3.85894 30384 ft 445 kts 166°
2026-05-06 19:42 52.49401 3.87279 30128 ft 445 kts 166°
2026-05-06 19:43 52.46407 3.88671 29871 ft 446 kts 166°
2026-05-06 19:43 52.43435 3.90051 29617 ft 446 kts 166°
2026-05-06 19:43 52.40479 3.91421 29362 ft 444 kts 166°
2026-05-06 19:43 52.37548 3.92778 29106 ft 441 kts 166°
2026-05-06 19:44 52.34634 3.94125 28850 ft 439 kts 166°
2026-05-06 19:44 52.31701 3.95479 28592 ft 437 kts 166°
2026-05-06 19:44 52.28759 3.96835 28332 ft 436 kts 166°
2026-05-06 19:44 52.25844 3.98177 28073 ft 435 kts 166°
2026-05-06 19:45 52.22977 3.99495 27815 ft 433 kts 166°
2026-05-06 19:45 52.20089 4.00821 27553 ft 431 kts 166°
2026-05-06 19:45 52.17262 4.02118 27296 ft 429 kts 166°
2026-05-06 19:45 52.14356 4.03448 27032 ft 428 kts 166°
2026-05-06 19:46 52.11494 4.04757 26773 ft 426 kts 166°
2026-05-06 19:46 52.08661 4.06051 26516 ft 424 kts 166°
2026-05-06 19:46 52.05826 4.07344 26258 ft 423 kts 166°
2026-05-06 19:46 52.02976 4.08642 26006 ft 421 kts 166°
2026-05-06 19:47 52.00256 4.09879 25957 ft 416 kts 166°
2026-05-06 19:47 51.97428 4.11164 25962 ft 419 kts 166°
2026-05-06 19:47 51.94573 4.12458 25960 ft 423 kts 166°
2026-05-06 19:47 51.91723 4.13750 25956 ft 422 kts 166°
2026-05-06 19:48 51.88934 4.15012 25884 ft 423 kts 166°
2026-05-06 19:48 51.87693 4.15573 25700 ft 426 kts 166°
2026-05-06 19:48 51.84311 4.17100 25132 ft 423 kts 166°
2026-05-06 19:48 51.81499 4.18369 24653 ft 414 kts 166°
2026-05-06 19:49 51.79841 4.19117 24364 ft 409 kts 166°
2026-05-06 19:49 51.78765 4.19601 24176 ft 407 kts 166°
2026-05-06 19:50 51.73344 4.22037 23224 ft 405 kts 166°
2026-05-06 19:50 51.70704 4.23222 22754 ft 403 kts 166°
2026-05-06 19:50 51.68096 4.24391 22287 ft 399 kts 166°
2026-05-06 19:50 51.65426 4.25586 21805 ft 396 kts 166°
2026-05-06 19:51 51.62771 4.26773 21324 ft 393 kts 166°
2026-05-06 19:51 51.60162 4.27938 20849 ft 390 kts 166°
2026-05-06 19:51 51.57563 4.29097 20375 ft 387 kts 166°
2026-05-06 19:51 51.54952 4.30260 19896 ft 385 kts 166°
2026-05-06 19:52 51.52380 4.31404 19422 ft 383 kts 166°
2026-05-06 19:52 51.49837 4.32534 18951 ft 380 kts 166°
2026-05-06 19:52 51.47306 4.33540 18488 ft 376 kts 173°
2026-05-06 19:52 51.44717 4.33646 18047 ft 371 kts 186°
2026-05-06 19:53 51.42135 4.33237 17592 ft 370 kts 187°
2026-05-06 19:53 51.39570 4.32808 17084 ft 369 kts 187°
2026-05-06 19:53 51.37044 4.32383 16532 ft 366 kts 187°
2026-05-06 19:53 51.34524 4.31957 16028 ft 361 kts 187°
2026-05-06 19:54 51.32051 4.31537 15563 ft 359 kts 187°
2026-05-06 19:54 51.29582 4.31113 15077 ft 360 kts 187°
2026-05-06 19:54 51.27073 4.30678 14354 ft 357 kts 187°
2026-05-06 19:54 51.24638 4.30257 13800 ft 347 kts 187°
2026-05-06 19:55 51.22248 4.29847 13473 ft 346 kts 187°
2026-05-06 19:55 51.19865 4.29436 13261 ft 348 kts 187°
2026-05-06 19:55 51.17459 4.29022 13056 ft 345 kts 187°
2026-05-06 19:55 51.15062 4.28606 12898 ft 347 kts 187°
2026-05-06 19:56 51.12694 4.28014 12778 ft 347 kts 197°
2026-05-06 19:56 51.10445 4.26549 12705 ft 348 kts 207°
2026-05-06 19:56 51.08257 4.24830 12666 ft 350 kts 207°
2026-05-06 19:56 51.06099 4.23136 12622 ft 349 kts 207°
2026-05-06 19:57 51.03897 4.21409 12465 ft 351 kts 207°
2026-05-06 19:57 51.01728 4.19711 12288 ft 349 kts 207°
2026-05-06 19:57 50.99557 4.18015 12112 ft 348 kts 207°
2026-05-06 19:57 50.97394 4.16327 11903 ft 349 kts 207°
2026-05-06 19:58 50.95179 4.14601 11494 ft 348 kts 207°
2026-05-06 19:58 50.93045 4.12943 11116 ft 343 kts 207°
2026-05-06 19:58 50.90908 4.11286 10748 ft 342 kts 207°
2026-05-06 19:58 50.88833 4.09678 10380 ft 337 kts 207°
2026-05-06 19:59 50.86834 4.08133 9928 ft 316 kts 207°
2026-05-06 19:59 50.84952 4.06684 9543 ft 298 kts 207°
2026-05-06 19:59 50.83127 4.05284 9313 ft 284 kts 207°
2026-05-06 19:59 50.81383 4.03948 8986 ft 282 kts 207°
2026-05-06 20:00 50.79620 4.02597 8585 ft 280 kts 207°
2026-05-06 20:00 50.77883 4.01268 8177 ft 274 kts 207°
2026-05-06 20:00 50.76189 3.99976 7829 ft 263 kts 207°
2026-05-06 20:00 50.74569 3.98746 7591 ft 258 kts 207°
2026-05-06 20:01 50.72935 3.97508 7346 ft 263 kts 207°
2026-05-06 20:01 50.71198 3.96617 7109 ft 266 kts 184°
2026-05-06 20:01 50.69391 3.97071 6911 ft 266 kts 154°
2026-05-06 20:01 50.67945 3.98852 6714 ft 263 kts 123°
2026-05-06 20:02 50.67192 4.01421 6513 ft 260 kts 103°
2026-05-06 20:02 50.66720 4.04139 6264 ft 259 kts 102°
2026-05-06 20:02 50.66248 4.06900 6001 ft 256 kts 102°
2026-05-06 20:02 50.65784 4.09581 5743 ft 254 kts 102°
2026-05-06 20:03 50.65318 4.12264 5375 ft 256 kts 102°
2026-05-06 20:03 50.64848 4.14953 4991 ft 254 kts 102°
2026-05-06 20:03 50.64379 4.17617 4634 ft 249 kts 102°
2026-05-06 20:03 50.63939 4.20242 4371 ft 244 kts 95°
2026-05-06 20:04 50.64030 4.22841 4159 ft 240 kts 73°
2026-05-06 20:04 50.64438 4.25406 3971 ft 241 kts 72°
2026-05-06 20:04 50.64860 4.27966 3772 ft 240 kts 72°
2026-05-06 20:04 50.65279 4.30499 3567 ft 239 kts 72°
2026-05-06 20:05 50.65696 4.33014 3367 ft 237 kts 72°
2026-05-06 20:05 50.66109 4.35475 3204 ft 230 kts 70°
2026-05-06 20:05 50.66861 4.37613 3055 ft 217 kts 45°
2026-05-06 20:05 50.67905 4.39271 2916 ft 210 kts 42°
2026-05-06 20:06 50.68959 4.40805 2761 ft 204 kts 30°
2026-05-06 20:06 50.70240 4.41554 2649 ft 192 kts 13°
2026-05-06 20:06 50.71514 4.42082 2523 ft 190 kts 15°
2026-05-06 20:06 50.72786 4.42627 2387 ft 185 kts 15°
2026-05-06 20:07 50.74012 4.43139 2164 ft 177 kts 15°
2026-05-06 20:07 50.75157 4.43613 2030 ft 165 kts 15°
2026-05-06 20:07 50.76217 4.44049 2009 ft 147 kts 15°
2026-05-06 20:07 50.77205 4.44453 2081 ft 151 kts 15°
2026-05-06 20:08 50.78205 4.44863 1977 ft 142 kts 14°
2026-05-06 20:08 50.79091 4.45223 1942 ft 123 kts 15°
2026-05-06 20:08 50.79937 4.45568 2029 ft 133 kts 15°
2026-05-06 20:08 50.80861 4.45945 1849 ft 136 kts 15°
2026-05-06 20:09 50.81752 4.46308 1647 ft 130 kts 15°
2026-05-06 20:09 50.82620 4.46661 1481 ft 130 kts 15°
2026-05-06 20:09 50.83495 4.47018 1311 ft 131 kts 15°
2026-05-06 20:09 50.84376 4.47377 1130 ft 130 kts 15°
2026-05-06 20:10 50.85241 4.47729 956 ft 130 kts 15°
2026-05-06 20:10 50.86109 4.48102 782 ft 129 kts 16°
2026-05-06 20:10 50.86981 4.48458 608 ft 130 kts 15°
2026-05-06 20:10 50.87868 4.48799 434 ft 131 kts 14°
2026-05-06 20:11 50.88744 4.49155 248 ft 132 kts 15°
2026-05-06 20:11 50.89578 4.49500 196 ft 105 kts 14°
2026-05-06 20:11 50.90152 4.49748 196 ft 65 kts 14°
2026-05-06 20:11 50.90523 4.49894 196 ft 50 kts 10°
2026-05-06 20:12 50.90793 4.49911 196 ft 17 kts 347°
2026-05-06 20:12 50.90843 4.49889 195 ft 5 kts 331°
2026-05-06 20:12 50.90867 4.49840 196 ft 8 kts 298°
2026-05-06 20:12 50.90890 4.49762 195 ft 7 kts 294°
2026-05-06 20:13 50.90896 4.49675 195 ft 9 kts 248°
2026-05-06 20:13 50.90881 4.49618 195 ft 4 kts 245°
2026-05-06 20:13 50.90865 4.49562 195 ft 6 kts 244°
2026-05-06 20:13 50.90823 4.49416 195 ft 21 kts 244°
2026-05-06 20:14 50.90762 4.49204 195 ft 20 kts 244°
2026-05-06 20:14 50.90703 4.48999 195 ft 20 kts 244°
2026-05-06 20:14 50.90644 4.48799 195 ft 19 kts 245°
2026-05-06 20:14 50.90588 4.48604 195 ft 19 kts 244°
2026-05-06 20:15 50.90532 4.48410 195 ft 19 kts 245°
2026-05-06 20:15 50.90473 4.48206 195 ft 22 kts 244°
2026-05-06 20:15 50.90408 4.47984 195 ft 22 kts 244°
2026-05-06 20:15 50.90345 4.47760 195 ft 23 kts 245°
2026-05-06 20:16 50.90277 4.47526 195 ft 22 kts 245°
2026-05-06 20:16 50.90225 4.47345 195 ft 17 kts 243°
2026-05-06 20:16 50.90184 4.47206 195 ft 11 kts 245°
2026-05-06 20:16 50.90182 4.47082 195 ft 11 kts 290°
2026-05-06 20:17 50.90223 4.46949 195 ft 18 kts 295°
2026-05-06 20:17 50.90285 4.46746 195 ft 20 kts 295°
2026-05-06 20:17 50.90344 4.46559 195 ft 17 kts 293°
2026-05-06 20:17 50.90354 4.46377 195 ft 17 kts 251°
2026-05-06 20:18 50.90312 4.46222 195 ft 13 kts 249°
2026-05-06 20:18 50.90281 4.46082 195 ft 13 kts 248°
2026-05-06 20:18 50.90244 4.45951 195 ft 12 kts 244°
2026-05-06 20:18 50.90212 4.45838 195 ft 6 kts 245°
2026-05-06 20:19 50.90201 4.45797 195 ft 2 kts 261°
2026-05-06 20:19 50.90212 4.45773 195 ft 2 kts 332°
2026-05-06 20:19 50.90237 4.45753 195 ft 4 kts 337°
2026-05-06 20:19 50.90253 4.45741 195 ft 0 kts 337°
2026-05-06 20:20 50.90254 4.45741 195 ft 0 kts 337°